HG5OJG-6 Weather Reports


time (UTC)temp
C
wind
direction
speed
KPH
gust
KPH
rain 1hr
cm
rain 24hr
cm
rain mn
cm
humidity
%
barometer
mb
20260507210609 13 181 0.0 1.6 0.00 0.30 0.30 88 1014.4
20260507205603 13 0.0 0.0 0.00 0.30 0.30 88 1014.4
20260507204548 13 181 0.0 1.6 0.00 0.30 0.30 88 1014.3
20260507203552 13 0.0 0.0 0.00 0.30 0.30 88 1014.4
20260507202616 13 181 0.0 1.6 0.00 0.30 0.30 87 1014.3
20260507201642 13 0.0 0.0 0.00 0.33 0.30 87 1014.1
20260507200614 13 183 1.6 3.2 0.00 0.36 0.30 87 1013.9
20260507195618 13 198 3.2 4.8 0.00 0.38 0.30 87 1014.1
20260507193626 14 202 1.6 1.6 0.00 0.38 0.30 87 1014.0
20260507192630 14 0.0 1.6 0.00 0.38 0.30 87 1014.0
20260507191604 14 202 0.0 1.6 0.00 0.38 0.30 87 1014.0
20260507190609 14 202 1.6 3.2 0.00 0.38 0.30 86 1014.0
20260507185613 14 204 1.6 3.2 0.00 0.38 0.30 86 1013.7
20260507184637 14 218 1.6 4.8 0.00 0.38 0.30 86 1013.7
20260507183536 14 209 1.6 6.4 0.00 0.38 0.30 86 1013.6
20260507182637 14 224 3.2 6.4 0.00 0.38 0.30 85 1013.4
20260507181637 14 229 3.2 6.4 0.00 0.38 0.30 85 1013.4
20260507180517 14 186 0.0 4.8 0.00 0.38 0.30 85 1013.1
20260507175616 15 229 1.6 4.8 0.03 0.38 0.30 84 1013.1
20260507174619 15 143 0.0 1.6 0.08 0.38 0.30 84 1012.7
20260507173518 15 132 1.6 4.8 0.13 0.38 0.30 83 1012.5
20260507172638 15 149 4.8 9.7 0.15 0.38 0.30 83 1012.7
20260507171517 15 158 1.6 6.4 0.15 0.38 0.30 82 1012.9
20260507165526 16 236 0.0 1.6 0.13 0.36 0.28 81 1012.7
20260507164549 16 235 0.0 1.6 0.08 0.28 0.23 80 1012.8
20260507163604 16 189 1.6 6.4 0.03 0.23 0.18 79 1012.7
20260507162516 16 174 4.8 9.7 0.00 0.23 0.15 78 1012.8
20260507161520 16 193 4.8 9.7 0.00 0.20 0.15 77 1012.8
20260507160525 16 186 4.8 11.3 0.00 0.20 0.15 77 1012.8
20260507155552 16 188 3.2 11.3 0.00 0.20 0.15 77 1012.7
20260507154533 16 202 3.2 6.4 0.03 0.20 0.15 77 1012.7
20260507153526 16 214 4.8 9.7 0.05 0.20 0.15 77 1012.6
20260507152530 16 196 3.2 11.3 0.05 0.20 0.15 78 1012.7
20260507151535 16 188 4.8 11.3 0.05 0.20 0.15 77 1012.8
20260507150600 16 214 4.8 11.3 0.05 0.20 0.15 76 1012.9
20260507145543 16 221 6.4 11.3 0.05 0.20 0.15 74 1012.8
20260507144537 17 235 6.4 16.1 0.03 0.18 0.13 72 1012.8
20260507143541 17 234 6.4 12.9 0.00 0.18 0.10 70 1012.8
20260507142646 17 234 6.4 12.9 0.00 0.18 0.10 68 1012.7
20260507141610 17 240 9.7 20.9 0.00 0.18 0.10 67 1012.6
20260507140555 18 233 9.7 24.1 0.00 0.18 0.10 64 1012.8
20260507135548 18 261 11.3 25.7 0.00 0.18 0.10 61 1012.8
20260507134712 19 230 14.5 29.0 0.00 0.18 0.10 59 1012.8
20260507133616 19 229 12.9 22.5 0.00 0.18 0.10 58 1012.6
20260507132620 20 238 14.5 24.1 0.00 0.18 0.10 58 1012.6
20260507131645 20 248 14.5 35.4 0.00 0.18 0.10 57 1012.7
20260507130558 20 243 12.9 24.1 0.00 0.18 0.10 56 1012.6
20260507125644 20 235 17.7 37.0 0.00 0.18 0.10 55 1012.6
20260507124608 20 256 14.5 25.7 0.00 0.18 0.10 55 1012.5
20260507123631 20 238 4.8 16.1 0.00 0.18 0.10 56 1012.4
20260507122615 21 228 11.3 24.1 0.00 0.18 0.10 55 1012.4
20260507121609 21 205 8.0 24.1 0.00 0.18 0.10 55 1012.5
20260507120632 21 224 11.3 24.1 0.00 0.18 0.10 54 1012.4
20260507115616 21 232 11.3 20.9 0.00 0.18 0.10 52 1012.5
20260507114613 22 225 14.5 25.7 0.00 0.18 0.10 50 1012.4
20260507113636 22 234 12.9 22.5 0.00 0.18 0.10 50 1012.3
20260507112640 22 228 14.5 25.7 0.00 0.18 0.10 52 1012.4
20260507111614 21 229 12.9 27.4 0.00 0.18 0.10 52 1012.3
20260507110619 21 259 9.7 20.9 0.00 0.18 0.10 53 1012.3
20260507105518 21 239 9.7 27.4 0.00 0.18 0.10 53 1012.4
20260507104521 22 289 9.7 22.5 0.00 0.18 0.10 54 1012.4
20260507103525 22 203 12.9 33.8 0.00 0.18 0.10 52 1012.4
20260507102519 23 232 12.9 22.5 0.00 0.18 0.10 52 1012.5
20260507101543 23 238 9.7 25.7 0.00 0.18 0.10 54 1012.6
20260507100527 22 211 8.0 14.5 0.00 0.18 0.10 57 1012.5
20260507095531 22 208 11.3 22.5 0.00 0.18 0.10 57 1012.5
20260507094616 21 209 3.2 9.7 0.00 0.18 0.10 57 1012.6
20260507093549 22 241 8.0 17.7 0.00 0.18 0.10 58 1012.4
20260507092533 21 235 6.4 14.5 0.00 0.18 0.10 60 1012.5
20260507091557 21 234 6.4 12.9 0.00 0.18 0.10 61 1012.5
20260507090541 20 218 6.4 16.1 0.00 0.18 0.10 60 1012.5
20260507085607 20 248 9.7 17.7 0.00 0.18 0.10 62 1012.5
20260507084539 20 247 9.7 17.7 0.00 0.18 0.10 64 1012.4
20260507083606 18 229 9.7 20.9 0.00 0.18 0.10 66 1012.4
20260507082548 18 237 8.0 14.5 0.00 0.18 0.10 65 1012.3
20260507081550 18 258 9.7 20.9 0.00 0.18 0.10 65 1012.3
20260507080556 18 244 9.7 17.7 0.00 0.18 0.10 66 1012.1
20260507075609 18 240 9.7 16.1 0.00 0.18 0.10 69 1012.0
20260507074542 18 236 11.3 24.1 0.00 0.18 0.10 69 1012.0
20260507073607 18 236 9.7 24.1 0.00 0.18 0.10 69 1012.0
20260507072631 18 243 8.0 17.7 0.00 0.18 0.10 70 1011.9
20260507071615 18 238 6.4 14.5 0.00 0.18 0.10 71 1011.8
20260507070559 18 211 6.4 16.1 0.00 0.18 0.10 72 1011.9
20260507065554 17 253 8.0 14.5 0.00 0.18 0.10 74 1011.8
20260507064658 17 261 6.4 16.1 0.00 0.18 0.10 75 1011.8
20260507063602 16 216 8.0 17.7 0.00 0.18 0.10 76 1011.8
20260507062605 16 241 4.8 12.9 0.00 0.18 0.10 78 1011.6
20260507061610 16 228 9.7 14.5 0.00 0.18 0.10 78 1011.7
20260507060624 16 199 6.4 16.1 0.00 0.18 0.10 79 1011.5
20260507055628 15 217 9.7 17.7 0.00 0.18 0.10 80 1011.5
20260507054612 15 215 6.4 14.5 0.00 0.18 0.10 81 1011.4
20260507053737 15 217 4.8 14.5 0.00 0.18 0.10 82 1011.3
20260507052536 15 212 4.8 12.9 0.00 0.18 0.10 83 1011.3
20260507051614 14 217 3.2 4.8 0.00 0.18 0.10 83 1011.2
20260507045556 14 209 3.2 9.7 0.00 0.18 0.10 83 1010.9
20260507044615 14 245 3.2 3.2 0.00 0.18 0.10 83 1010.7
20260507043640 13 254 3.2 6.4 0.00 0.18 0.10 84 1010.6
20260507042539 13 227 4.8 14.5 0.00 0.18 0.10 84 1010.4
20260507041658 13 232 8.0 16.1 0.00 0.18 0.10 84 1010.2
20260507040557 13 245 8.0 14.5 0.00 0.18 0.10 84 1010.1
20260507035541 13 233 6.4 14.5 0.00 0.18 0.10 84 1010.1
20260507034545 13 242 6.4 12.9 0.00 0.18 0.10 84 1010.1
20260507033650 13 247 8.0 12.9 0.00 0.18 0.10 84 1010.1
20260507032523 13 231 8.0 14.5 0.00 0.18 0.10 84 1010.1
20260507031547 13 233 6.4 11.3 0.00 0.18 0.10 84 1010.1
20260507030551 13 261 6.4 12.9 0.00 0.18 0.10 84 1010.0
20260507025635 13 269 6.4 12.9 0.00 0.18 0.10 84 1010.0
20260507024538 13 266 6.4 11.3 0.00 0.18 0.10 84 1010.0
20260507023552 13 270 6.4 11.3 0.00 0.18 0.10 84 1010.1
20260507022607 13 265 6.4 11.3 0.00 0.18 0.10 84 1010.0
20260507021612 14 255 6.4 11.3 0.00 0.18 0.10 84 1009.9
20260507020616 14 249 6.4 14.5 0.00 0.18 0.10 84 1009.8
20260507015559 14 245 8.0 17.7 0.00 0.18 0.10 84 1009.9
20260507014603 14 239 9.7 17.7 0.00 0.18 0.10 85 1010.0
20260507013617 14 253 9.7 22.5 0.00 0.18 0.10 85 1010.0
20260507012541 14 245 9.7 16.1 0.00 0.18 0.10 85 1010.1
20260507011706 14 251 11.3 17.7 0.00 0.18 0.10 85 1010.1
20260507010630 14 241 6.4 11.3 0.00 0.18 0.10 85 1009.9
20260507005614 14 258 4.8 12.9 0.00 0.18 0.10 85 1010.0
20260507004548 14 236 4.8 6.4 0.00 0.18 0.10 85 1010.0
20260507003612 15 229 3.2 6.4 0.00 0.18 0.10 85 1010.1
20260507002617 15 244 4.8 9.7 0.00 0.18 0.10 85 1010.2
20260507001620 15 258 4.8 9.7 0.00 0.18 0.10 84 1010.2
20260507000604 15 247 3.2 6.4 0.05 0.18 0.10 84 1010.4
20260506235639 15 241 3.2 9.7 0.10 0.18 0.10 84 1010.5
20260506234602 15 253 3.2 9.7 0.10 0.18 0.10 84 1010.4
20260506233627 15 223 3.2 9.7 0.10 0.18 0.10 83 1010.6
20260506232612 15 213 6.4 9.7 0.10 0.18 0.10 83 1010.6
20260506231615 15 222 4.8 9.7 0.10 0.15 0.10 82 1010.6
20260506230629 16 210 9.7 25.7 0.08 0.13 0.08 82 1011.0
20260506225611 16 220 11.3 22.5 0.03 0.08 0.03 82 1011.0
20260506224635 16 231 11.3 27.4 0.03 0.08 0.03 81 1011.0
20260506223611 16 226 8.0 17.7 0.03 0.08 0.03 81 1010.8
20260506222637 16 193 6.4 14.5 0.00 0.05 0.00 80 1010.4
20260506221640 16 250 8.0 16.1 0.00 0.05 0.00 80 1010.0
20260506220634 16 249 9.7 17.7 0.00 0.05 0.00 80 1009.8
20260506215638 16 266 8.0 16.1 0.00 0.05 0.05 79 1009.9
20260506214538 16 247 4.8 11.3 0.00 0.05 0.05 79 1009.9
20260506213521 16 252 6.4 9.7 0.00 0.05 0.05 80 1009.8
20260506212646 16 236 4.8 9.7 0.00 0.05 0.05 79 1010.0
20260506211520 16 250 3.2 6.4 0.00 0.05 0.05 79 1009.9